This is the latest recevied weather packets stored in our database for station/object KB3KBR-WX. If no packets are shown the sender has not sent any weather packets the latest 10 day(s).
| Time | Temp. | Humidity | Pressure | Rain* | Wind** | Luminosity | Snow |
|---|---|---|---|---|---|---|---|
| 1787404344 | 15° C | 94% | 1013.6 hPa | 0 mm | - | - | - |
| 1787404044 | 14.44° C | 94% | 1013.7 hPa | 0 mm | - | - | - |
| 1787403713 | 14.44° C | 94% | 1013.8 hPa | 0 mm | - | - | - |
| 1787403383 | 14.44° C | 94% | 1013.8 hPa | 0 mm | - | - | - |
| 1787403054 | 14.44° C | 95% | 1014 hPa | 0 mm | - | - | - |
| 1787402723 | 13.89° C | 95% | 1014.1 hPa | 0 mm | - | - | - |
| 1787402393 | 13.89° C | 95% | 1014.1 hPa | 0 mm | - | - | - |
| 1787402063 | 13.89° C | 95% | 1014 hPa | 0 mm | - | - | - |
| 1787401763 | 13.89° C | 95% | 1014.3 hPa | 0 mm | - | - | - |
| 1787401433 | 13.33° C | 95% | 1014 hPa | 0 mm | - | - | - |
| 1787401133 | 13.33° C | 95% | 1014.2 hPa | 0 mm | - | - | - |
| 1787400803 | 13.33° C | 95% | 1014.1 hPa | 0 mm | - | - | - |
| 1787400779 | 12.78° C | 95% | 1014.4 hPa | 0 mm | - | - | - |
| 1787400473 | 13.33° C | 95% | 1014.3 hPa | 0 mm | - | - | - |
| 1787400173 | 12.78° C | 95% | 1014.4 hPa | 0 mm | - | - | - |
| 1787399843 | 12.78° C | 95% | 1014.4 hPa | 0 mm | - | - | - |
| 1787399533 | 12.78° C | 95% | 1014.2 hPa | 0 mm | - | - | - |
| 1787399514 | 12.78° C | 95% | 1014.2 hPa | 0 mm | - | - | - |
| 1787399229 | 12.22° C | 95% | 1014.1 hPa | 0 mm | - | - | - |
| 1787399215 | 12.22° C | 95% | 1014.1 hPa | 0 mm | - | - | - |
| 1787398913 | 12.22° C | 95% | 1013.9 hPa | 0 mm | - | - | - |
| 1787398613 | 12.22° C | 95% | 1013.9 hPa | 0 mm | - | - | - |
| 1787398283 | 12.22° C | 95% | 1014.1 hPa | 0 mm | - | - | - |
| 1787397984 | 12.22° C | 95% | 1013.7 hPa | 0 mm | - | - | - |
| 1787397384 | 11.67° C | 95% | 1013.8 hPa | 0 mm | - | - | - |
* Rain latest hour (hover to see other rain measurements)
** Current wind speed in m/s (hover to see current wind gust speed)